Location: ??
(35.4824°N, 139.4679°E)
Time: 20:43:59
(UTC+00:00)

Cosmos 1553 Rocket - Pass Details

Date: 29 October 2020
Orbit: 940 x 1009 km, 82.9° (Epoch: 24 November)

Event Time Altitude Azimuth Distance (km) Brightness Sun altitude
Rises 19:53:58 0° 356° (N) 3,628 6.9 -14.4°
Reaches altitude 10° 19:56:29 10° 358° (N) 2,673 6.2 -13.9°
Maximum altitude 20:02:34 72° 83° (E) 987 4.2 -12.6°
Drops below altitude 10° 20:08:35 10° 167° (SSE) 2,646 6.6 -11.4°
Sets 20:11:04 0° 170° (S) 3,589 7.2 -10.9°
